FW7711 Weather Reports


time (UTC)temp
C
wind
direction
speed
KPH
gust
KPH
rain 1hr
cm
rain 24hr
cm
rain mn
cm
humidity
%
barometer
mb
20260504044557 9 0.0 0.0 0.00 0.00 0.00 62 1002.7
20260504043114 10 0.0 0.0 0.00 0.00 0.00 60 1003.1
20260504041558 10 0.0 0.0 0.00 0.00 0.00 59 1003.3
20260504040058 10 0.0 0.0 0.00 0.00 0.00 58 1003.6
20260504034600 11 0.0 0.0 0.00 0.00 0.00 57 1004.0
20260504033121 11 0.0 0.0 0.00 0.00 0.00 56 1004.2
20260504031600 12 0.0 0.0 0.00 0.00 0.00 52 1004.4
20260504030115 12 0.0 0.0 0.00 0.00 0.00 50 1004.5
20260504024600 13 0.0 0.0 0.00 0.00 0.00 48 1004.5
20260504023058 14 0.0 0.0 0.00 0.00 0.00 47 1004.6
20260504021559 15 0.0 0.0 0.00 0.00 0.00 44 1004.6
20260504020107 16 0.0 0.0 0.00 0.00 0.00 43 1004.5
20260504014607 17 0.0 0.0 0.00 0.00 0.00 39 1004.6
20260504013100 17 0.0 0.0 0.00 0.00 0.00 37 1004.7
20260504011559 18 0.0 0.0 0.00 0.00 0.00 32 1004.8
20260504004600 18 0.0 0.0 0.00 0.00 0.00 30 1004.9
20260504003104 19 0.0 0.0 0.00 0.00 0.00 31 1004.7
20260504001602 19 0.0 0.0 0.00 0.00 0.00 28 1004.9
20260504000105 20 0.0 0.0 0.00 0.00 0.00 27 1005.0
20260503234558 21 0.0 0.0 0.00 0.00 0.00 27 1004.8
20260503233102 22 0.0 0.0 0.00 0.00 0.00 26 1005.0
20260503231559 21 0.0 0.0 0.00 0.00 0.00 26 1005.3
20260503230112 21 0.0 0.0 0.00 0.00 0.00 26 1005.4
20260503224604 21 0.0 0.0 0.00 0.00 0.00 29 1005.4
20260503223112 21 0.0 0.0 0.00 0.00 0.00 28 1005.6
20260503221559 21 0.0 0.0 0.00 0.00 0.00 29 1005.5
20260503220059 21 0.0 0.0 0.00 0.00 0.00 28 1005.6
20260503214601 21 0.0 0.0 0.00 0.00 0.00 31 1005.6
20260503213057 21 0.0 0.0 0.00 0.00 0.00 30 1005.8
20260503211557 21 0.0 0.0 0.00 0.00 0.00 31 1005.9
20260503210058 21 0.0 0.0 0.00 0.00 0.00 32 1005.9
20260503204557 21 0.0 0.0 0.00 0.00 0.00 32 1006.1
20260503203058 22 0.0 0.0 0.00 0.00 0.00 31 1006.2
20260503201559 22 0.0 0.0 0.00 0.00 0.00 30 1006.4
20260503200058 22 0.0 0.0 0.00 0.00 0.00 30 1006.6
20260503194621 23 0.0 0.0 0.00 0.00 0.00 29 1006.8
20260503193106 23 0.0 0.0 0.00 0.00 0.00 30 1006.8
20260503191612 23 0.0 0.0 0.00 0.00 0.00 29 1006.8
20260503190059 22 0.0 0.0 0.00 0.00 0.00 32 1006.9
20260503184557 22 0.0 0.0 0.00 0.00 0.00 35 1007.0
20260503183105 22 0.0 0.0 0.00 0.00 0.00 35 1007.2
20260503181608 23 0.0 0.0 0.00 0.00 0.00 36 1007.2
20260503180059 22 0.0 0.0 0.00 0.00 0.00 39 1007.2
20260503174613 22 0.0 0.0 0.00 0.00 0.00 32 1007.3
20260503173112 22 0.0 0.0 0.00 0.00 0.00 37 1007.3
20260503171557 22 0.0 0.0 0.00 0.00 0.00 39 1007.2
20260503170113 22 0.0 0.0 0.00 0.00 0.00 41 1007.3
20260503160109 21 0.0 0.0 0.00 0.00 0.00 38 1007.3
20260503120117 10 0.0 0.0 0.00 0.00 0.00 63 1005.3
20260503081558 14 0.0 0.0 0.00 0.00 0.00 47 1005.9